#timestamp,LO_Frequency,Hit,StdDev 
1622865615.7,286046998.4,N
1622865635.6,286046998.7,N
1622865655.4,286047001.1,N
1622865675.2,286047000.5,N
1622865695.1,286047001.0,N
1622865696.0,286047001.0,N
1622865715.8,286046998.1,N
1622865735.6,286046998.2,N
1622865755.5,286046999.5,N
1622865775.3,286046997.0,N
1622865795.2,286046996.9,N
1622865815.9,286046996.9,N
1622865835.7,286046995.9,N
1622865855.6,286046995.7,N
1622865875.4,286046995.0,N
1622865895.2,286046995.0,N
1622865915.1,286046995.9,N
1622865916.0,286046995.9,N
1622865935.8,286046996.0,N
1622865955.7,286046995.7,N
1622865975.5,286046995.4,N
1622865995.3,286046995.3,N
1622866015.2,286046995.1,N
1622866035.0,286046995.3,N
1622866035.9,286046995.3,N
1622866055.7,286046997.5,N
1622866075.6,286046996.6,N
1622866095.4,286046996.6,N
1622866115.3,286046998.9,N
1622866135.1,286046996.7,N
1622866136.0,286046996.7,N
1622866155.8,286046996.9,N
1622866175.7,286046996.7,N
1622866195.5,286046996.6,N
1622866215.3,286046996.5,N
1622866235.2,286047011.9,Y
1622866255.0,286047002.3,P
1622866255.9,286047002.3,N
1622866275.8,286047002.6,N
1622866295.6,286047002.3,N
1622866315.4,286047002.3,N
1622866335.3,286047002.1,N
1622866355.1,286047002.0,N
1622866375.9,286047002.3,N
1622866395.7,286047002.4,N
1622866415.5,286047002.5,N
1622866435.4,286046999.8,N
1622866455.2,286047002.7,N
1622866475.0,286047002.8,N
1622866475.9,286047002.8,N
1622866495.8,286046999.7,N
1622866515.6,286046999.8,N
1622866535.5,286047002.8,N
1622866555.3,286047002.6,N
1622866575.1,286047002.8,N
1622866595.9,286046998.7,N
1622866615.7,286046999.3,N
1622866635.5,286046998.4,N
1622866655.4,286047000.7,N
1622866675.2,286046998.4,N
1622866695.1,286047000.7,N
1622866696.0,286047000.7,N
1622866715.8,286046999.3,N
1622866735.6,286046998.7,N
1622866755.5,286046998.6,N
1622866775.3,286046999.0,N
1622866795.1,286046999.1,N
1622866815.9,286046999.4,N
1622866835.7,286046999.4,N
1622866855.6,286046999.0,N
1622866875.4,286046999.2,N
1622866895.2,286046997.2,N
1622866915.1,286046999.2,N
1622866916.0,286046999.2,N
1622866935.8,286046997.0,N
1622866955.6,286046998.4,N
1622866975.5,286046999.4,N
1622866995.3,286046998.9,N
1622867015.2,286046998.9,N
1622867035.9,286046999.4,N
1622867055.7,286046998.9,N
1622867075.6,286046999.1,N
1622867095.4,286046998.7,N
1622867115.2,286046999.2,N
1622867135.1,286046996.7,Y
1622867136.0,286046996.7,P
1622867155.8,286046996.7,N
1622867175.7,286046996.7,N
1622867195.5,286046997.4,N
1622867215.3,286046995.2,Y
1622867235.2,286046998.6,P
1622867255.0,286047000.3,N
1622867255.9,286047000.3,N
1622867275.8,286047000.6,N
1622867295.6,286046998.3,N
1622867315.4,286046998.1,N
1622867335.3,286046998.8,N
1622867355.1,286046999.4,N
1622867356.0,286046999.4,N
1622867375.8,286046999.5,N
1622867395.7,286046999.0,N
1622867415.5,286046998.5,N
1622867435.3,286047001.1,N
1622867455.2,286046998.2,N
1622867475.0,286047000.9,N
1622867475.9,286047000.9,N
1622867495.8,286047000.7,N
1622867515.6,286047000.7,N
1622867535.4,286047000.3,N
1622867555.3,286046999.9,N
1622867575.1,286047001.7,N
1622867595.9,286047001.6,N
1622867615.7,286047002.4,N
1622867635.5,286047000.2,N
1622867655.4,286047000.9,N
1622867675.2,286047000.5,N
1622867695.0,286047000.2,N
1622867695.9,286047000.2,N
1622867715.8,286047000.0,N
1622867735.6,286046999.8,N
1622867755.5,286047000.0,N
1622867775.3,286047000.0,N
1622867795.1,286047002.3,N
1622867815.9,286047001.4,N
1622867835.7,286047001.4,N
1622867855.6,286047001.3,N
1622867875.4,286047004.2,Y
1622867895.2,286047002.5,P
1622867915.1,286047002.6,N
1622867916.0,286047002.6,N
1622867935.8,286047002.2,N
1622867955.7,286047002.7,Y
1622867975.5,286046998.1,P
1622867995.3,286047001.1,N
1622868015.2,286046998.7,N
1622868035.9,286046998.1,N
1622868055.7,286047001.2,N
1622868075.6,286046998.5,N
1622868095.4,286047001.0,N
1622868115.2,286047001.2,N
1622868135.1,286047000.2,N
1622868136.0,286047000.2,N
1622868155.8,286047000.3,N
1622868175.7,286046999.7,N
1622868195.5,286046998.1,N
1622868215.3,286047000.8,N
1622868235.2,286046999.8,N
1622868255.0,286047000.0,N
1622868255.9,286047000.0,N
1622868275.7,286046999.0,N
1622868295.6,286046999.2,N
1622868315.4,286046997.0,N
1622868335.3,286046995.0,Y
1622868355.1,286046997.3,P
1622868375.8,286046998.6,N
1622868395.7,286046998.5,N
1622868415.5,286046999.5,N
1622868435.4,286046997.3,Y
1622868455.2,286047001.2,P
1622868475.0,286047000.1,N
1622868475.9,286047000.1,N
1622868495.8,286047002.5,N
1622868515.6,286047002.0,N
1622868535.4,286047001.7,N
1622868555.3,286047002.8,N
1622868575.1,286047000.2,N
1622868595.9,286047000.8,N
1622868615.7,286047001.1,N
1622868635.5,286047000.7,N
1622868655.4,286047000.7,N
1622868675.2,286047000.9,N
1622868695.0,286047002.7,N
1622868695.9,286047002.7,N
1622868715.8,286047002.1,N
1622868735.6,286047001.8,N
1622868755.5,286047004.0,Y
1622868775.3,286047002.1,P
1622868795.1,286047002.8,P
1622868815.9,286047000.7,N
1622868835.7,286046999.9,N
1622868855.5,286046999.7,N
1622868875.4,286046999.9,N
1622868895.2,286047000.5,N
1622868915.1,286047000.7,N
1622868916.0,286047000.7,N
1622868935.8,286046999.7,N
1622868955.6,286047000.7,N
1622868975.5,286047002.8,Y
1622868995.3,286046999.3,P
1622869015.1,286046997.7,P
1622869035.9,286046997.9,N
1622869055.7,286046999.0,N
1622869075.6,286046998.4,N
1622869095.4,286047001.2,N
1622869115.2,286047000.6,N
1622869135.1,286047000.1,N
1622869136.0,286047000.1,N
1622869155.8,286047001.2,N
1622869175.6,286046996.5,N
1622869195.5,286046999.6,N
